EHI
0 0 0 0 0 0 0 0 0 0 0 0 0 0 0 0 0 0 0 0 0 0 0 0 0 0 0 0 0 0 0 0 0 0 0 0 0 0 0 0 0 0 0
0 0 0 0 0 0 0 0 0 0 0 0 0 0 0 0 0 0 0 0 0 0 0 0 0 0 0 0 0 0 0 0 0 0 0 0 0 0 0 0 0 0 0
0 0 0 0 0 0 0 0 0 0 0 0 0 0 0 0 0 0 0 0 0 0 0 0 0 0 0 0 0 0 0 0 0 0 0 0 0 0 0 0 0 0 0
0 0 0 0 0 0 0 0 0 0 0 0 0 0 0 0 0 0 0 0 0 0 0 0 0 0 0 0 0 0 0 0 0 0 0 0 0 0 0 0 0 0 0
0 0 0 0 0 0 0 0 0 0 0 0 0 0 0 0 0 0 0 0 0 0 0 0 0 0 0 0 0 0 0 0 0 0 0 0 0 0 0 0 0 0 0
0 0 0 0 0 0 0 0 0 0 0 0 0 0 0 0 0 0 0 0 0 0 0 0 0 0 0 0 0 0 0 0 0 0 0 0 0 0 0 0 0 0 0
0 0 0 0 0 0 0 0 0 0 0 0 0 0 0 0 0 0 0 0 0 0 0 0 0 0 0 0 0 0 0 0 0 0 0 0 0 0 0 0 0 0 0
0 0 0 0 0 0 0 0 0 0 0 0 0 0 0 0 0 0 0 0 0 0 0 0 0 0 0 0 0 0 0 0 0 0 0 0 0 0 0 0 0 0 0
0 0 0 0 0 0 0 0 0 0 0 0 0 0 0 0 0 0 0 0 0 0 0 0 0 0 0 0 0 0 0 0 0 0 0 0 0 0 0 0 0 0 0
0 0 0 0 0 0 0 0 0 0 0 0 0 0 0 0 0 0 0 0 0 0 0 0 0 0 0 0 0 0 0 0 0 0 0 0 0 0 0 0 0 0 0
0 0 0 0 0 0 0 0 0 0 0 0 0 0 0 0 0 0 0 0 0 0 0 0 0 0 0 0 0 0 0 0 0 0 0 0 0 0 0 0 0 0 0
0 0 0 0 0 0 0 0 0 0 0 0 0 0 0 0 0 0 0 0 0 0 0 0 0 0 0 0 0 0 0 0 0 0 0 0 0 0 0 0 0 0 0
0 0 0 0 0 0 0 0 0 0 0 0 0 0 0 0 0 0 0 0 0 0 0 0 0 0 0 0 0 0 0 0 0 0 0 0 0 0 0 0 0 0 0
0 0 0 0 0 0 0 0 0 0 0 0 0 0 0 0 0 0 0 0 0 0 0 0 0 0 0 0 0 0 0 0 0 0 0 0 0 0 0 0 0 0 0
0 0 0 0 0 0 0 0 0 0 0 0 0 0 0 0 0 0 0 0 0 0 0 0 0 0 0 0 0 0 0 0 0 0 0 0 0 0 0 0 0 0 0
0 0 0 0 0 0 0 0 0 0 0 0 0 0 0 0 0 0 0 0 0 0 0 0 0 0 0 0 0 0 0 0 0 0 0 0 0 0 0 0 0 0 0
0 0 0 0 0 0 0 0 0 0 0 0 0 0 0 0 0 0 0 0 0 0 0 0 0 0 0 0 0 0 0 0 0 0 0 0 0 0 0 0 0 0 0
0 0 0 0 0 0 0 0 0 0 0 0 0 0 0 0 0 0 0 0 0 0 0 0 0 0 0 0 0 0 0 0 0 0 0 0 0 0 0 0 0 0 0
0 0 0 0 0 0 0 0 0 0 0 0 0 0 0 0 0 0 0 0 0 0 0 0 0 0 0 0 0 0 0 0 0 0 0 0 0 0 0 0 0 0 0
0 0 0 0 0 0 0 0 0 0 0 0 0 0 0 0 0 0 0 0 0 0 0 0 0 0 0 0 0 0 0 0 0 0 0 0 0 0 0 0 0 0 0
0 0 0 0 0 0 0 0 0 0 0 0 0 0 0 0 0 0 0 0 0 0 0 0 0 0 0 0 0 0 0 0 0 0 0 0 0 0 0 0 0 0 0
0 0 0 0 0 0 0 0 0 0 0 0 0 0 0 0 0 0 0 0 0 0 0 0 0 0 0 0 0 0 0 0 0 0 0 0 0 0 0 0 0 0 0
0 0 0 0 0 0 0 0 0 0 0 0 0 0 0 0 0 0 0 0 0 0 0 0 0 0 0 0 0 0 0 0 0 0 0 0 0 0 0 0 0 0 0
0 0 0 0 0 0 0 0 0 0 0 0 0 0 0 0 0 0 0 0 0 0 0 0 0 0 0 0 0 0 0 0 0 0 0 0 0 0 0 0 0 0 0
0 0 0 0 0 0 0 0 0 0 0 0 0 0 0 0 0 0 0 0 0 0 0 0 0 0 0 0 0 0 0 0 0 0 0 0 0 0 0 0 0 0 0
0 0 0 0 0 0 0 0 0 0 0 0 0 0 0 0 0 0 0 0 0 0 0 0 0 0 0 0 0 0 0 0 0 0 0 0 0 0 0 0 0 0 0
Wind_Speed
2 2 2 2 2 2 2 3 4 4 4 4 4 4 4 4 3 3 4 4 4 4 4 4 4 3 3 3 3 3 3 3 5 4 2 2 3 3 3 3 3 3 3
2 2 2 2 2 3 3 4 4 4 4 4 4 4 4 4 4 4 4 4 4 5 5 4 5 3 4 3 3 4 4 3 4 5 3 2 3 3 3 3 3 3 3
1 2 2 2 3 3 3 4 4 4 4 4 4 4 5 5 5 5 5 4 5 5 5 5 5 4 5 4 4 4 3 3 3 4 3 2 2 2 2 2 2 2 3
1 2 2 3 3 3 4 4 4 3 3 4 4 5 5 5 5 5 4 4 5 5 5 5 5 6 6 6 5 5 4 3 3 3 3 2 2 1 1 2 2 2 2
2 2 3 3 3 3 3 3 3 3 4 4 4 4 4 4 4 4 4 4 4 4 5 5 6 7 8 7 5 4 4 4 4 3 3 2 2 2 2 2 3 2 2
2 3 3 3 3 3 3 3 3 3 3 3 4 4 4 4 6 7 5 4 4 4 5 5 5 7 8 9 10 8 6 6 5 5 4 5 5 4 3 2 2 1 3
3 3 3 3 3 3 3 3 3 4 3 3 4 4 5 6 7 7 6 4 4 4 5 4 4 5 6 5 7 8 8 9 8 6 6 6 5 5 4 4 3 3 4
3 3 3 3 3 3 3 4 4 3 3 4 4 4 4 5 7 7 6 4 4 4 4 4 5 5 5 4 4 4 5 5 6 6 6 5 4 4 5 4 4 2 2
3 4 3 3 4 3 4 4 4 3 3 3 4 4 4 5 7 7 5 3 3 4 4 4 4 4 6 5 4 4 4 3 4 4 4 3 4 4 3 2 2 1 2
4 4 4 4 4 4 4 4 3 3 3 3 4 4 4 5 6 6 5 3 3 3 3 3 5 4 5 5 3 4 4 3 2 1 2 2 3 4 4 4 4 3 2
3 3 3 3 3 4 4 3 3 3 3 3 4 4 4 5 6 6 5 3 3 3 2 2 3 5 5 5 4 3 4 2 2 2 2 1 1 1 1 1 2 3 3
2 3 3 3 2 2 3 3 3 2 2 3 3 3 3 4 4 5 5 5 3 3 3 2 3 4 4 4 3 2 1 1 1 2 2 2 2 1 1 1 1 1 2
2 3 3 3 2 2 2 2 2 2 2 3 3 3 3 2 3 5 5 4 4 3 2 4 4 3 3 2 2 2 1 1 2 2 2 2 1 1 1 1 1 1 1
2 3 2 2 2 2 2 2 2 2 2 3 3 3 3 2 2 2 2 2 3 2 2 2 3 2 1 1 1 1 1 1 2 2 2 1 1 1 1 1 1 0 1
2 3 2 2 2 2 2 2 2 2 3 3 3 3 3 3 3 4 2 2 1 1 1 0 0 0 1 1 1 0 1 1 1 1 2 1 1 1 1 1 0 0 0
2 2 2 2 2 1 2 3 4 4 5 5 5 4 4 4 4 4 4 3 2 1 1 1 1 1 2 2 1 1 1 1 1 1 1 2 2 1 1 0 0 1 1
2 2 2 2 2 2 2 2 3 4 5 5 5 5 5 4 4 4 3 2 2 2 1 1 1 2 2 1 1 1 1 1 1 1 2 1 1 1 1 1 1 0 1
2 3 3 2 2 2 2 2 2 3 3 3 4 5 5 4 4 3 2 1 1 1 1 1 2 1 1 1 1 1 1 0 1 1 1 1 1 1 1 1 1 1 1
2 2 2 2 1 1 2 2 2 2 3 3 3 3 4 4 3 2 1 1 1 1 1 1 1 1 1 1 1 1 1 1 1 1 1 1 1 1 1 1 1 2 1
2 3 3 2 1 1 2 2 2 2 2 2 3 3 2 2 1 1 1 0 1 1 1 1 1 1 1 1 1 1 1 1 1 1 1 1 1 1 1 1 1 1 1
2 3 4 2 2 2 2 2 2 2 2 3 3 3 4 1 1 1 1 1 1 1 1 1 1 1 1 1 2 2 1 1 1 1 1 1 1 1 1 1 1 1 1
1 2 2 2 2 2 2 2 2 2 2 3 3 3 4 2 1 1 1 1 1 1 1 1 2 2 2 2 2 2 2 2 2 1 1 1 1 1 1 1 1 1 1
1 2 2 2 2 3 3 2 2 2 2 2 2 2 2 2 2 2 1 1 1 1 1 1 1 1 1 1 2 2 3 3 2 2 2 2 1 1 1 1 1 1 1
2 2 2 2 2 2 2 2 2 2 2 2 2 2 2 2 2 2 2 1 1 1 1 1 1 2 2 1 1 2 2 2 2 2 3 3 2 2 1 1 1 1 1
2 2 2 2 2 2 2 3 2 2 2 2 2 2 2 2 2 2 1 1 1 1 1 1 1 2 2 2 2 2 3 3 3 2 2 2 2 2 2 2 2 1 1
2 2 2 2 2 2 2 3 2 2 2 3 2 2 2 2 2 1 1 1 1 1 1 1 1 1 2 2 2 3 3 3 3 3 2 2 3 2 2 2 2 2 2
Wind_Direction
232 230 230 241 246 247 254 265 263 256 250 243 245 246 248 249 250 250 249 246 246 254 254 247 249 249 252 252 248 241 240 236 252 271 265 259 254 251 265 255 246 235 235
252 249 249 250 252 254 256 263 262 259 253 247 245 245 248 251 248 243 250 251 243 245 248 246 249 247 246 249 246 244 240 236 240 263 271 267 258 251 250 254 263 252 242
260 258 260 253 249 254 258 265 263 261 264 258 247 245 246 246 246 245 243 241 246 247 246 245 247 242 246 250 249 242 238 240 236 243 257 267 270 264 273 275 274 267 261
264 266 269 264 258 258 262 261 264 260 258 258 256 251 248 245 244 246 245 242 248 252 249 244 243 241 243 244 246 241 234 230 230 236 244 248 251 256 242 255 275 279 277
254 259 262 264 265 271 277 274 269 260 261 259 261 264 259 247 243 251 244 242 247 255 260 254 249 251 251 248 248 238 228 226 226 231 234 237 232 229 232 241 244 274 277
246 255 266 270 268 273 285 285 272 265 264 261 255 257 259 262 273 268 260 244 248 251 260 260 259 254 258 257 256 249 237 229 224 223 232 231 235 231 232 230 229 238 267
242 256 259 261 263 266 276 281 268 261 265 263 256 254 257 264 271 271 269 255 247 248 252 255 263 264 263 254 255 252 249 248 238 227 227 230 229 221 213 221 226 236 253
252 259 262 265 267 262 264 267 265 261 254 251 255 257 260 265 272 271 270 251 248 249 249 247 251 259 262 262 250 248 248 248 244 238 231 230 227 218 213 217 221 244 276
259 256 261 259 259 257 259 262 263 257 254 253 253 252 257 265 268 269 267 241 247 253 256 255 257 253 265 266 255 248 251 261 264 249 246 237 224 218 196 165 174 187 250
263 261 258 255 247 249 251 258 264 259 259 258 260 253 252 257 266 267 265 237 248 257 261 260 265 273 268 266 240 229 234 237 218 226 236 236 221 201 192 191 188 194 214
280 283 275 258 247 252 252 254 257 261 261 259 260 260 253 257 264 262 255 233 230 245 255 263 267 274 274 273 260 237 238 230 200 200 211 213 210 214 211 212 203 196 206
301 298 291 282 260 262 246 256 258 258 264 268 266 272 265 262 265 262 258 249 248 240 251 261 266 272 275 276 274 262 237 216 177 185 195 206 206 215 227 220 231 242 236
309 303 301 297 280 268 249 249 260 252 256 267 267 270 276 271 273 276 268 258 256 257 252 263 275 273 266 260 262 238 213 202 184 195 208 221 221 207 173 133 72 41 4
301 306 308 302 302 301 286 263 255 250 254 264 265 270 277 273 266 261 248 253 258 266 259 262 272 277 278 253 216 234 241 222 199 202 214 216 174 168 165 146 135 62 34
299 302 305 304 305 316 312 300 285 270 267 266 260 253 256 265 270 274 263 243 227 230 235 232 117 229 243 238 220 217 212 203 210 193 176 173 187 179 167 134 145 160 190
298 305 305 307 306 308 314 325 326 315 315 305 299 290 281 279 279 275 269 259 244 216 176 167 203 226 227 227 226 249 252 225 213 192 180 179 191 185 167 156 151 175 207
289 295 295 296 296 299 303 309 317 327 326 318 312 305 297 296 294 283 269 246 225 209 189 189 217 236 245 238 226 229 255 248 220 191 180 187 187 174 163 179 196 212 237
293 290 295 288 290 293 299 305 305 308 316 319 315 311 309 307 309 305 285 237 234 239 207 202 218 231 233 230 224 220 224 233 207 194 182 189 186 175 177 188 194 203 221
293 296 294 294 295 300 307 307 302 301 304 314 323 317 309 305 307 311 310 259 228 240 240 226 220 222 227 225 220 212 209 216 219 206 195 194 186 172 179 194 192 192 191
291 300 310 307 306 310 306 303 302 302 306 310 310 312 322 328 321 328 327 305 248 251 240 229 227 219 212 207 207 204 204 210 213 212 192 188 185 175 176 183 185 183 191
291 296 303 311 301 293 290 288 289 296 304 308 307 314 323 320 294 293 285 271 258 257 244 222 218 213 206 201 199 198 202 215 219 226 194 174 163 169 175 176 176 178 165
284 288 289 285 286 285 288 288 290 291 292 295 308 315 319 329 314 301 293 286 276 265 244 215 213 210 205 203 197 196 204 213 212 202 196 178 166 162 158 159 154 158 159
275 278 284 288 288 290 295 292 285 284 287 291 298 307 313 309 299 295 291 291 289 282 259 214 206 213 215 210 208 204 205 211 211 197 191 181 176 180 174 173 172 164 161
263 270 275 283 286 281 281 284 284 284 284 287 289 290 291 290 288 286 286 291 291 283 256 226 212 208 212 216 216 220 217 210 208 197 191 185 187 189 179 170 172 172 170
257 264 269 273 279 280 282 284 285 284 286 285 284 286 286 285 286 285 288 284 268 260 254 243 225 211 210 214 218 217 214 213 215 204 185 180 180 184 177 169 167 160 162
251 260 266 269 270 271 272 277 280 280 279 281 282 282 280 280 283 279 276 271 273 271 262 253 240 234 224 221 220 217 217 218 210 202 183 175 173 175 168 166 163 161 163